This demonstration page uses our WeatherBlox Daily Observations layout. Learn more.

40.92945, -100.16068

Hourly Observations for March 9, 2020

Temp ( °F °C ) Dew Point ( °F °C ) Humidity (%) Winds ( mph kmh ) Pressure ( in mb ) Visibility ( mi km ) Precip ( " mm )
12:15 am 00:15 Cloudy 42 5.3 38 3.3 87 87 NNE 22 35 29.97 1015 10 16.0934 0 0
12:35 am 00:35 Cloudy with Light Drizzle 41 4.8 37 3 88 88 NNE 15 24 30 1016 10 16.0934 0 0
12:55 am 00:55 Cloudy with Light Rain 40 4.5 37 3 90 90 N 17 28 30 1016 10 16.0934 0 0
1:15 am 01:15 Cloudy with Light Rain 38 3.6 36 2.2 91 91 NNE 17 28 30 1016 10 16.0934 0 0
1:35 am 01:35 Cloudy with Light Rain 38 3.3 36 2.2 93 93 NNE 17 28 30 1016 7 11.26538 0.03 0.762
1:55 am 01:55 Cloudy 38 3.2 36 2.1 93 93 NNE 18 30 30 1016 10 16.0934 0.03 0.762
2:15 am 02:15 Cloudy 37 3 36 2 93 93 NNE 15 24 30.01 1016 10 16.0934 0.01 0.254
2:35 am 02:35 Cloudy 37 3 36 2 93 93 NNE 15 24 30.02 1017 10 16.0934 0.01 0.254
2:55 am 02:55 Cloudy with Light Rain 37 2.7 35 1.9 95 95 NNE 16 26 30.01 1016 10 16.0934 0.01 0.254
3:15 am 03:15 Cloudy 37 2.5 34 1.3 92 92 N 17 28 30.01 1016 10 16.0934 0 0
3:35 am 03:35 Cloudy 36 2.2 34 1 92 92 N 15 24 30.03 1017 10 16.0934 0 0
3:55 am 03:55 Cloudy with Mist and Fog 36 2 34 1 93 93 NNE 16 26 30.02 1016 5 8.0467 0 0
4:15 am 04:15 Cloudy with Mist and Fog 35 1.6 34 1 96 96 N 17 28 30.03 1017 3 4.82802 0 0
4:35 am 04:35 Cloudy with Mist and Fog 35 1.5 34 0.9 96 96 NNE 15 24 30.02 1017 3 4.82802 0 0
4:55 am 04:55 Cloudy with Light Rain 35 1.4 34 1 97 97 NNE 13 20 30.02 1017 3 4.82802 0 0
5:15 am 05:15 Cloudy with Light Rain 34 1.2 33 0.8 97 97 N 18 30 30.03 1017 3 4.82802 0 0
5:35 am 05:35 Cloudy with Rain 34 1 33 0.6 97 97 N 16 26 30.06 1018 3 4.82802 0.01 0.254
5:55 am 05:55 Cloudy with Drizzle 34 1 33 0.5 97 97 N 16 26 30.06 1018 3 4.82802 0.01 0.254
6:15 am 06:15 Cloudy with Light Drizzle 34 1 33 0.6 97 97 N 15 24 30.06 1018 3 4.82802 0.01 0.254
6:35 am 06:35 Cloudy with Mist and Fog 34 1 33 0.4 96 96 N 15 24 30.06 1018 4 6.43736 0.01 0.254
6:55 am 06:55 Cloudy 34 1 32 0.1 94 94 N 15 24 30.08 1019 7 11.26538 0.01 0.254
7:15 am 07:15 Cloudy with Light Rain 34 1 32 0 93 93 N 20 31 30.07 1018 10 16.0934 0 0
7:35 am 07:35 Cloudy with Light Rain 33 0.8 32 0 94 94 NNE 16 26 30.07 1018 7 11.26538 0.01 0.254
7:55 am 07:55 Cloudy with Light Rain 33 0.7 32 0 95 95 NNE 16 26 30.06 1018 7 11.26538 0.02 0.508
8:15 am 08:15 Cloudy with Rain 33 0.7 32 0 95 95 NNE 9 15 30.09 1019 4 6.43736 0.04 1.016
8:35 am 08:35 Cloudy with Light Wintry Mix 33 0.6 32 0 96 96 NNE 8 13 30.12 1020 1.75 2.816345 0.1 2.54
8:55 am 08:55 Cloudy with Light Snow 33 0.6 32 0 96 96 NNE 14 22 30.1 1019 5 8.0467 0.12 3.048
9:15 am 09:15 Cloudy with Light Snow 33 0.6 32 0 96 96 N 15 24 30.11 1020 10 16.0934 0.01 0.254
9:35 am 09:35 Cloudy with Light Drizzle 33 0.7 32 0 95 95 N 10 17 30.13 1020 10 16.0934 0.01 0.254
9:55 am 09:55 Cloudy 33 0.8 32 0.1 95 95 NNW 14 22 30.14 1021 10 16.0934 0.01 0.254
10:15 am 10:15 Cloudy 33 0.8 32 -0.2 93 93 N 14 22 30.15 1021 10 16.0934 0 0
10:35 am 10:35 Cloudy 33 0.8 31 -0.5 91 91 N 10 17 30.17 1022 10 16.0934 0 0
10:55 am 10:55 Cloudy 33 0.7 31 -0.4 92 92 N 10 17 30.16 1021 10 16.0934 0.01 0.254
11:15 am 11:15 Cloudy 33 0.7 31 -0.5 92 92 N 12 19 30.16 1021 10 16.0934 0 0
11:35 am 11:35 Cloudy 33 0.7 31 -0.4 92 92 N 10 17 30.17 1022 10 16.0934 0 0
11:55 am 11:55 Cloudy 33 0.8 32 -0.2 93 93 N 12 19 30.16 1021 10 16.0934 0 0
12:15 pm 12:15 Cloudy 34 1.1 32 0 92 92 NNW 13 20 30.17 1022 10 16.0934 0 0
12:35 pm 12:35 Cloudy 35 1.7 32 0.1 89 89 NNW 18 30 30.17 1022 10 16.0934 0 0
12:55 pm 12:55 Cloudy 36 2.2 33 0.5 89 89 NNW 17 28 30.16 1021 10 16.0934 0 0
1:15 pm 13:15 Cloudy 37 2.6 33 0.6 87 87 NNW 15 24 30.16 1021 10 16.0934 0 0
1:35 pm 13:35 Cloudy 37 3 34 0.9 86 86 NNW 15 24 30.16 1021 10 16.0934 0 0
1:55 pm 13:55 Cloudy 38 3.4 34 1.1 85 85 N 14 22 30.14 1021 10 16.0934 0 0
2:15 pm 14:15 Cloudy 38 3.5 35 1.5 87 87 NNW 12 19 30.15 1021 10 16.0934 0 0
2:35 pm 14:35 Cloudy 39 3.9 35 1.8 86 86 NNW 13 20 30.15 1021 10 16.0934 0 0
2:55 pm 14:55 Cloudy 39 4.1 35 1.9 86 86 NNW 12 19 30.15 1021 10 16.0934 0 0
3:15 pm 15:15 Cloudy 40 4.5 36 2.2 85 85 NNW 13 20 30.14 1021 10 16.0934 0 0
3:35 pm 15:35 Cloudy 41 4.8 36 2.2 83 83 NNW 12 19 30.13 1020 10 16.0934 0 0
3:55 pm 15:55 Cloudy 41 5.1 36 2.3 82 82 N 10 17 30.13 1020 10 16.0934 0 0
4:15 pm 16:15 Cloudy 42 5.6 36 2.4 80 80 NNW 8 13 30.12 1020 10 16.0934 0 0
4:35 pm 16:35 Cloudy 43 6 36 2.4 78 78 N 7 11 30.11 1020 10 16.0934 0 0
4:55 pm 16:55 Cloudy 43 6.2 37 2.5 77 77 N 8 13 30.11 1020 10 16.0934 0 0
5:15 pm 17:15 Mostly Cloudy 44 6.6 37 2.7 76 76 N 6 9 30.1 1019 10 16.0934 0 0
5:35 pm 17:35 Cloudy 44 6.5 37 2.8 77 77 NNE 6 9 30.11 1020 10 16.0934 0 0
5:55 pm 17:55 Cloudy 44 6.7 37 3 78 78 NE 6 9 30.11 1020 10 16.0934 0 0
6:15 pm 18:15 Cloudy 44 6.9 37 3 76 76 NNE 3 6 30.13 1020 10 16.0934 0 0
6:35 pm 18:35 Mostly Cloudy 43 6.3 37 3 80 80 N 8 13 30.14 1021 10 16.0934 0 0
6:55 pm 18:55 Partly Cloudy 42 5.7 37 2.7 81 81 NNE 6 9 30.15 1021 10 16.0934 0 0
7:15 pm 19:15 Sunny 40 4.6 37 2.7 88 88 NE 6 9 30.16 1021 10 16.0934 0 0
7:35 pm 19:35 Sunny 38 3.6 36 2.1 90 90 NE 6 9 30.18 1022 10 16.0934 0 0
7:55 pm 19:55 Clear 37 2.6 35 1.5 93 93 ENE 3 6 30.2 1023 10 16.0934 0 0
8:15 pm 20:15 Clear 36 2.3 34 1.3 93 93 ENE 6 9 30.2 1023 10 16.0934 0 0
8:35 pm 20:35 Clear 35 1.7 33 0.8 94 94 E 3 6 30.23 1024 10 16.0934 0 0
8:55 pm 20:55 Clear 36 2 33 0.8 92 92 Calm 30.24 1024 10 16.0934 0 0
9:15 pm 21:15 Clear 33 0.8 32 0.1 95 95 ENE 6 9 30.25 1024 10 16.0934 0 0
9:35 pm 21:35 Clear 33 0.5 32 0 96 96 ENE 5 7 30.26 1025 10 16.0934 0 0
9:55 pm 21:55 Clear 33 0.4 32 0 97 97 E 3 6 30.27 1025 10 16.0934 0 0
10:15 pm 22:15 Clear 33 0.5 32 0 96 96 E 5 7 30.26 1025 10 16.0934 0 0
10:35 pm 22:35 Clear 32 0 31 -0.4 97 97 E 3 6 30.28 1025 10 16.0934 0 0
10:55 pm 22:55 Clear 32 -0.1 31 -0.4 98 98 Calm 30.29 1026 10 16.0934 0 0
11:15 pm 23:15 Clear 31 -0.8 30 -1.1 98 98 Calm 30.3 1026 10 16.0934 0 0
11:35 pm 23:35 Clear 30 -1.1 30 -1.2 99 99 ENE 3 6 30.31 1026 7 11.26538 0 0
11:55 pm 23:55 Clear 29 -1.5 29 -1.5 100 100 E 5 7 30.3 1026 7 11.26538 0 0

Powered by AerisWeather